#timestamp,LO_Frequency,Hit,StdDev 
1621915215.0,286047000.3,P
1621915215.9,286047000.3,N
1621915235.8,286046995.0,N
1621915255.6,286046993.2,N
1621915275.4,286046992.1,N
1621915295.3,286047005.8,N
1621915315.1,286047012.1,N
1621915335.9,286047012.0,N
1621915355.7,286047010.6,N
1621915375.5,286047010.8,N
1621915395.4,286047014.0,N
1621915415.2,286047007.7,N
1621915435.0,286047012.2,N
1621915435.9,286047012.2,N
1621915455.8,286047015.3,N
1621915475.6,286047016.0,N
1621915495.5,286047011.1,N
1621915515.3,286047014.6,N
1621915535.2,286047010.9,N
1621915555.9,286047007.0,N
1621915575.8,286047009.6,N
1621915595.6,286047018.1,N
1621915615.4,286047024.4,Y
1621915635.3,286047022.2,P
1621915655.1,286047019.9,N
1621915675.9,286047017.6,N
1621915695.7,286047014.5,N
1621915715.5,286047017.7,Y
1621915735.4,286046998.4,P
1621915755.2,286046999.0,N
1621915775.0,286046997.7,N
1621915776.0,286046997.7,N
1621915795.8,286047002.6,N
1621915815.6,286047006.7,N
1621915835.5,286047005.1,N
1621915855.3,286047000.2,N
1621915875.1,286046998.7,N
1621915895.9,286047000.6,N
1621915915.7,286047001.6,N
1621915935.6,286047002.1,N
1621915955.4,286046993.7,N
1621915975.2,286046995.3,N
1621915995.1,286047003.2,N
1621915996.0,286047003.2,N
1621916015.8,286047001.5,N
1621916035.6,286047000.0,N
1621916055.5,286047002.9,N
1621916075.3,286047007.2,N
1621916095.2,286047014.4,Y
1621916115.9,286047008.9,P
1621916135.7,286047004.4,N
1621916155.6,286047003.8,N
1621916175.4,286047004.9,N
1621916195.3,286047001.7,N
1621916215.1,286046998.7,N
1621916216.0,286046998.7,N
1621916235.8,286046990.4,Y
1621916255.7,286046980.5,P
1621916275.5,286046979.2,N
1621916295.4,286046977.3,N
1621916315.2,286046977.6,N
1621916335.0,286046974.4,N
1621916335.9,286046974.4,N
1621916355.8,286046981.7,N
1621916375.6,286046987.8,N
1621916395.4,286046991.7,N
1621916415.3,286046992.1,N
1621916435.1,286046993.6,N
1621916455.9,286047003.6,N
1621916475.7,286047010.4,N
1621916495.5,286047007.2,N
1621916515.4,286047001.3,N
1621916535.2,286047003.2,N
1621916555.0,286047012.0,N
1621916556.0,286047012.0,N
1621916575.8,286047001.5,N
1621916595.6,286047005.3,N
1621916615.5,286047004.9,N
1621916635.3,286047000.0,N
1621916655.1,286046999.1,N
1621916675.9,286046994.7,N
1621916695.7,286046990.5,N
1621916715.6,286046991.5,N
1621916735.4,286046987.7,N
1621916755.2,286046982.8,N
1621916775.1,286046983.9,N
1621916776.0,286046983.9,N
1621916795.8,286046980.6,N
1621916815.6,286046984.5,N
1621916835.5,286046993.6,N
1621916855.3,286046990.2,N
1621916875.2,286046988.5,N
1621916895.9,286046987.2,N
1621916915.7,286046988.3,N
1621916935.6,286046996.1,N
1621916955.4,286047001.0,N
1621916975.3,286047001.1,N
1621916995.1,286047001.3,N
1621916996.0,286047001.3,N
1621917015.8,286047007.5,N
1621917035.7,286047008.9,N
1621917055.5,286047006.4,N
1621917075.3,286047010.9,N
1621917095.2,286047014.3,N
1621917115.0,286047011.1,N
1621917115.9,286047011.1,N
1621917135.8,286047015.4,N
1621917155.6,286047018.0,N
1621917175.4,286047016.2,N
1621917195.3,286047011.2,N
1621917215.1,286047003.3,N
1621917235.8,286047001.7,N
1621917255.7,286046998.3,N
1621917275.5,286046993.8,N
1621917295.4,286046993.4,N
1621917315.2,286046988.6,N
1621917335.0,286046988.6,N
1621917335.9,286046988.6,N
1621917355.8,286046988.9,N
1621917375.6,286046987.8,N
1621917395.5,286046993.2,N
1621917415.3,286046996.2,N
1621917435.1,286046990.2,N
1621917455.9,286046988.5,N
1621917475.7,286046989.5,N
1621917495.5,286046994.6,N
1621917515.4,286047001.1,N
1621917535.2,286047003.0,N
1621917555.1,286047004.1,N
1621917556.0,286047004.1,N
1621917575.8,286047013.8,N
1621917595.6,286047003.0,N
1621917615.5,286046999.0,N
1621917635.3,286046990.3,N
1621917655.2,286046992.3,N
1621917675.9,286046997.0,N
1621917695.7,286047003.9,N
1621917715.6,286046998.3,N
1621917735.4,286046996.9,N
1621917755.2,286046991.0,N
1621917775.1,286046988.6,N
1621917776.0,286046988.6,N
1621917795.8,286046988.9,N
1621917815.7,286046986.7,N
1621917835.5,286046985.9,N
1621917855.3,286046993.9,N
1621917875.2,286047003.5,N
1621917895.0,286047011.0,N
1621917895.9,286047011.0,N
1621917915.8,286047005.3,N
1621917935.6,286047008.2,N
1621917955.4,286047003.1,N
1621917975.3,286046998.7,N
1621917995.1,286046998.2,N
1621918015.8,286046994.6,N
1621918035.7,286046996.4,N
1621918055.5,286046991.8,N
1621918075.4,286046993.2,N
1621918095.2,286046996.4,N
1621918115.0,286046994.5,N
1621918115.9,286046994.5,N
1621918135.8,286046993.6,N
1621918155.6,286046999.7,N
1621918175.5,286047004.9,N
1621918195.3,286047005.5,N
1621918215.1,286047010.5,N
1621918235.9,286047015.1,N
1621918255.7,286047018.2,N
1621918275.5,286047016.2,N
1621918295.4,286047004.9,N
1621918315.2,286046999.2,N
1621918335.1,286046996.4,N
1621918336.0,286046996.4,N
1621918355.8,286046995.4,N
1621918375.6,286046997.5,N
1621918395.5,286046993.1,N
1621918415.3,286046984.7,N
1621918435.2,286046981.1,N
1621918455.9,286046979.5,N
1621918475.7,286046989.2,N
1621918495.6,286046997.5,N
1621918515.4,286047011.9,N
1621918535.3,286047004.0,N
1621918555.1,286047010.5,N
1621918556.0,286047010.5,N
1621918575.8,286047014.0,N
1621918595.7,286047015.6,N
1621918615.5,286047010.8,N
1621918635.3,286047011.5,N
1621918655.2,286047004.4,N
1621918675.0,286047001.6,N
1621918675.9,286047001.6,N
1621918695.8,286047009.5,N
1621918715.6,286047020.1,N
1621918735.4,286047024.6,N
1621918755.3,286047020.4,N
1621918775.1,286047020.7,N
1621918795.9,286047015.4,N
